Location: Arcizans
(42.9833°N, 0.1000°W)
Time: 02:50:17
(UTC+00:00)

Daily predictions for brighter satellites

Satellite Brightness Start Highest point End
(mag) Time Altitude Azimuth Time Altitude Azimuth Time Altitude Azimuth
BREEZE-M DEB (TANK) 4.3 03:59:21 42° E 03:59:21 42° E 04:06:21 10° ESE
NOSS 3-3 (A) 4.4 04:06:37 89° NNE 04:06:40 89° ENE 04:15:15 10° SE
NOSS 3-3 (C) 4.4 04:06:41 88° NNE 04:06:46 88° NE 04:15:20 10° SE
CENTAUR R/B 3.1 04:30:49 45° N 04:30:49 45° N 04:36:15 10° NNE
Cosmos 1634 Rocket 4.2 04:30:38 11° N 04:36:44 69° E 04:42:55 10° SSE
Cosmos 1486 Rocket 4.3 04:36:21 29° S 04:39:01 65° ESE 04:44:16 10° NNE
Meteor 1-26 Rocket 4.1 04:43:21 66° NNW 04:44:14 84° W 04:49:57 10° S
Cosmos 2344 3.9 04:44:25 43° NW 04:44:25 43° NW 04:51:44 10° NNE
NOSS 3-2 (A) 4.4 04:48:00 31° NNW 04:48:00 31° NNW 04:52:29 10° NNE
Tsikada Rocket 3.8 04:40:34 10° SSW 04:46:43 68° W 04:53:00 10° N
Cosmos 2369 Rocket 2.0 04:47:35 56° SSW 04:48:50 88° WNW 04:54:29 10° NNE
NOSS 3-2 (C) 3.6 04:55:42 47° NNW 04:55:42 47° NNW 05:01:30 10° NNE
Meteor 1-31 Rocket 4.0 04:52:07 10° NNE 04:55:50 41° E 04:59:33 10° S
SJ 16-02 4.2 04:53:34 10° SE 04:56:28 18° E 04:59:22 10° NE
H-2A R/B 3.4 04:56:14 10° NNE 05:00:50 47° SSE 05:03:41 10° S
Cosmos 1656 Rocket 3.5 04:55:20 11° SSW 05:00:35 83° ESE 05:06:04 10° NNE
Envisat 3.1 04:57:16 10° NNE 05:02:22 73° ESE 05:07:26 10° S
Cosmos 968 Rocket 4.4 05:06:20 32° NNW 05:06:20 32° NNW 05:09:23 10° N
Cosmos 2098 Rocket 2.9 05:04:51 10° S 05:08:44 85° W 05:13:45 10° N
Cosmos 1862 3.3 05:06:20 10° S 05:10:16 80° E 05:14:14 10° N
Cosmos 1943 Rocket 3.5 05:12:33 24° NNW 05:12:33 24° NNW 05:15:32 10° N
SKYMED 2 3.6 05:06:41 10° SSE 05:11:01 79° ENE 05:13:22 27° N
CZ-2C R/B 2.7 05:05:40 10° SSE 05:11:10 82° ENE 05:16:34 10° NNW
Cosmos 921 Rocket 3.4 05:16:00 46° SW 05:16:00 46° SW 05:19:43 10° S
SL-8 R/B 3.7 05:15:27 50° NW 05:16:36 71° NNE 05:21:22 10° ESE
DELTA 2 R/B (1) 4.0 05:15:49 31° SW 05:18:14 55° S 05:23:39 10° E
Meteor 2-13 Rocket 4.4 05:13:05 10° SSW 05:19:03 56° WNW 05:25:03 10° N
USA 238 DEB 4.2 05:22:25 32° WNW 05:23:34 34° NW 05:29:48 10° NNE
USA 238 4.2 05:22:29 32° WNW 05:23:40 34° NW 05:29:54 10° NNE
USA 215 3.4 05:20:27 10° ESE 05:26:55 68° NE 05:31:21 22° NW
H-2A R/B 4.1 05:23:37 10° SE 05:27:12 27° ENE 05:30:53 10° N
SJ-12 3.9 05:23:58 10° N 05:28:03 57° WNW 05:32:05 10° SSW
CBERS 1 LM4 rocket 4.3 05:24:29 10° NNE 05:29:23 79° WNW 05:34:26 10° SSW
Cosmos 1151 Rocket 3.1 05:28:45 34° NW 05:30:21 54° W 05:34:36 10° S
MOS 1-B Rocket 4.1 05:26:41 10° S 05:32:48 49° W 05:37:28 15° NNW
Cosmos 1354 Rocket 3.9 05:27:52 10° SSW 05:33:08 87° WNW 05:38:29 10° NNE
Okean 3 Rocket 3.6 05:29:02 10° SSW 05:33:32 63° W 05:38:03 10° N
DNEPR-1 R/B 4.0 05:34:58 28° NW 05:37:34 67° WSW 05:43:25 10° SSE
CZ-4B R/B 4.3 05:36:58 10° E 05:38:42 14° ENE 05:40:25 10° NE
Cosmos 1766 Rocket 3.7 05:35:43 10° SSW 05:39:52 46° WNW 05:44:03 10° N
CZ-4B R/B 3.9 05:36:57 10° NNE 05:40:22 41° E 05:43:47 10° S
NOAA 11 4.4 05:35:12 10° NNE 05:40:42 74° ESE 05:46:11 10° S
ADEOS 3.6 05:37:50 10° NNE 05:43:05 86° ESE 05:48:19 10° SSW
Meteor 1-27 Rocket 4.0 05:43:05 10° N 05:48:45 71° E 05:54:30 10° SSE
Cosmos 1328 Rocket 3.7 05:45:56 15° NNW 05:49:23 47° W 05:53:33 10° SSW
ATLAS 5 CENTAUR R/B 1.4 05:54:28 10° SSW 05:58:13 74° ESE 06:02:25 10° NE
CZ-2C R/B 3.1 05:53:41 10° NNE 05:58:36 82° ESE 06:03:44 10° S
COSMO-SKYMED 1 3.3 05:55:20 10° SSW 05:59:11 31° W 06:01:59 16° NW
BREEZE-M DEB (TANK) 4.2 05:50:01 17° WNW 06:00:14 88° SSW 06:04:08 10° ESE
Cosmos 1340 Rocket 3.0 05:56:26 10° S 06:00:21 71° E 06:04:21 10° NNE
CZ-4C R/B 3.1 05:59:13 10° S 06:02:11 40° W 06:04:08 18° NW
Cosmos 2279 Rocket 4.4 05:58:21 10° NNW 06:04:03 40° W 06:09:45 10° SSW
Cosmos 1812 4.4 06:05:04 16° W 06:05:04 16° W 06:06:52 10° SW
Meteor PRIRODA 3.5 06:03:05 10° N 06:06:43 74° WNW 06:10:19 10° SSW
Meteor 2-15 Rocket 4.4 06:03:37 10° NNW 06:09:40 71° W 06:15:41 10° S
COSMOS 2487 3.5 06:07:56 10° N 06:11:10 42° ENE 06:14:21 10° SE
Cosmos 1515 4.2 06:08:17 10° N 06:12:04 61° E 06:15:49 10° SSE
Nadezhda 4 Rocket 3.9 06:06:29 10° SSW 06:12:36 68° W 06:18:50 10° N
H-2A R/B 4.0 06:08:34 10° NNE 06:12:56 31° E 06:17:16 10° SSE
Cosmos 1408 Rocket 3.8 06:09:12 10° SSW 06:13:17 43° WNW 06:17:24 10° N
Cosmos 1939 Rocket 2.8 06:13:26 10° NNE 06:17:23 87° ESE 06:21:15 10° SSW
Cosmos 2228 Rocket 3.5 06:16:15 10° N 06:20:45 70° E 06:25:16 10° SSE
CENTAUR R/B 4.1 06:18:00 12° WNW 06:21:52 19° NNW 06:27:02 10° NNE
Cosmos 1743 Rocket 3.5 06:17:52 10° SSW 06:22:14 66° W 06:26:35 10° N
Cosmos 1777 Rocket 4.0 06:17:34 10° SSW 06:22:42 59° WNW 06:27:53 10° NNE
USA 32 4.1 06:17:35 10° N 06:22:52 90° W 06:28:06 10° S
Cosmos 773 Rocket 4.4 06:24:05 10° NNW 06:29:00 44° WSW 06:33:52 10° S
Cosmos 1092 Rocket 4.0 06:22:50 10° S 06:29:05 86° W 06:35:27 10° N
DMSP B5D2-2 4.3 06:24:35 10° S 06:29:36 48° W 06:34:40 10° NNW
Meteor 1-31 Rocket 4.3 06:27:28 10° NNW 06:29:52 16° WNW 06:32:16 10° WSW
Cosmos 2297 Rocket 3.6 06:25:10 10° N 06:30:23 36° ENE 06:35:35 10° ESE
Cosmos 1515 Rocket 4.3 06:28:16 10° NNW 06:32:06 30° W 06:35:53 10° SSW
SL-4 R/B 3.9 06:29:27 10° SSW 06:32:34 30° SE 06:35:53 10° ENE
Cosmos 2369 Rocket 3.6 06:30:18 10° W 06:33:42 16° NW 06:37:08 10° N
FALCON 9 R/B 4.4 06:14:36 10° W 06:33:46 41° SW 06:39:42 10° SE
SJ 16-02 1.7 06:30:30 10° SW 06:34:40 43° WNW 06:38:51 10° N
SL-27 R/B 3.5 06:32:53 10° NW 06:36:00 28° WSW 06:39:04 10° SSW
Okean 1 3.7 06:32:15 10° N 06:36:12 65° E 06:40:06 10° SSE
SMAP 3.0 06:32:40 10° N 06:37:19 76° WNW 06:41:58 10° SSW
NOAA 6 4.0 06:32:44 10° NNE 06:37:53 85° WNW 06:43:00 10° SSW
Geosat FO 4.5 06:36:00 10° SSE 06:39:18 63° WSW 06:42:36 10° NNW
Envisat 4.5 06:37:52 10° NNW 06:40:46 16° WNW 06:43:41 10° W
CZ-2D R/B 3.3 06:42:02 10° NNE 06:45:50 86° ESE 06:49:37 10° SSW
AQUARIUS 4.1 06:41:25 10° N 06:45:55 70° WNW 06:50:22 10° SSW
